CW1936 Weather Reports


time (UTC)temp
C
wind
direction
speed
KPH
gust
KPH
rain 1hr
cm
rain 24hr
cm
rain mn
cm
humidity
%
barometer
mb
20260506214518 14 270 0.0 0.0 0.00 0.00 0.00 76 1016.1
20260506213017 14 270 0.0 0.0 0.00 0.00 0.00 77 1016.2
20260506211512 15 270 0.0 0.0 0.00 0.00 0.00 80 1016.4
20260506210017 15 270 0.0 0.0 0.00 0.00 0.00 79 1016.4
20260506204510 15 270 0.0 0.0 0.00 0.00 0.00 80 1016.5
20260506203010 15 270 0.0 0.0 0.00 0.00 0.00 79 1016.6
20260506201511 15 270 0.0 0.0 0.00 0.00 0.00 81 1016.6
20260506200007 16 270 0.0 0.0 0.00 0.00 0.00 80 1016.6
20260506194507 16 267 0.0 0.0 0.00 0.00 0.00 80 1016.6
20260506193007 16 263 0.0 0.0 0.00 0.00 0.00 81 1016.5
20260506191509 16 294 0.0 0.0 0.00 0.00 0.00 82 1016.4
20260506190002 16 313 0.0 0.0 0.00 0.00 0.00 84 1016.2
20260506184504 16 320 0.0 0.0 0.00 0.00 0.00 84 1016.1
20260506183106 16 339 0.0 0.0 0.00 0.00 0.00 84 1015.8
20260506163108 19 47 0.0 0.0 0.00 0.00 0.00 77 1015.0
20260506161557 19 47 0.0 0.0 0.00 0.00 0.00 76 1015.0
20260506160113 20 47 0.0 0.0 0.00 0.00 0.00 72 1015.0
20260506154557 21 47 0.0 0.0 0.00 0.00 0.00 67 1015.1
20260506153054 22 47 0.0 1.6 0.00 0.00 0.00 67 1015.1
20260506151556 21 48 0.0 1.6 0.00 0.00 0.00 69 1015.0
20260506124600 22 94 0.0 0.0 0.00 0.00 0.00 62 1015.4
20260506123059 22 79 0.0 0.0 0.00 0.00 0.00 62 1015.5
20260506121600 22 92 0.0 0.0 0.00 0.00 0.00 59 1015.7
20260506120107 22 86 0.0 1.6 0.00 0.00 0.00 57 1015.8
20260506114556 22 93 0.0 1.6 0.00 0.00 0.00 56 1015.9
20260506113056 22 96 0.0 3.2 0.00 0.00 0.00 58 1016.0
20260506111554 22 118 0.0 3.2 0.00 0.00 0.00 57 1016.0
20260506110107 22 88 0.0 1.6 0.00 0.00 0.00 56 1016.1
20260506104611 22 101 0.0 3.2 0.00 0.00 0.00 56 1016.1
20260506103053 22 90 0.0 0.0 0.00 0.00 0.00 56 1016.1
20260506101554 23 98 0.0 1.6 0.00 0.00 0.00 54 1016.2
20260506094557 23 138 0.0 1.6 0.00 0.00 0.00 51 1016.2
20260506093051 23 134 0.0 3.2 0.00 0.00 0.00 51 1016.2
20260506091548 23 148 0.0 1.6 0.00 0.00 0.00 49 1016.2
20260506090047 23 153 0.0 3.2 0.00 0.00 0.00 50 1016.2
20260506084614 23 158 0.0 0.0 0.00 0.00 0.00 52 1016.1
20260506083045 23 160 0.0 0.0 0.00 0.00 0.00 49 1015.9
20260506081552 23 159 0.0 0.0 0.00 0.00 0.00 47 1015.8
20260506073035 22 158 0.0 0.0 0.00 0.00 0.00 49 1015.5
20260506071534 22 158 0.0 0.0 0.00 0.00 0.00 53 1015.5
20260506061529 21 164 0.0 0.0 0.00 0.00 0.00 52 1015.3
20260506044520 20 262 0.0 0.0 0.00 0.00 0.00 57 1014.8
20260506043012 18 241 0.0 0.0 0.00 0.00 0.00 63 1014.7
20260506041508 16 270 0.0 0.0 0.00 0.00 0.00 65 1014.5
20260506040004 15 270 0.0 0.0 0.00 0.00 0.00 61 1014.3
20260506034503 13 270 0.0 0.0 0.00 0.00 0.00 60 1014.3
20260506033003 12 271 0.0 0.0 0.00 0.00 0.00 60 1014.2
20260506031502 12 271 0.0 0.0 0.00 0.00 0.00 65 1014.0
20260506030001 13 265 0.0 1.6 0.00 0.00 0.00 65 1014.1
20260506024501 12 269 0.0 0.0 0.00 0.00 0.00 70 1014.1
20260506023109 12 269 0.0 0.0 0.00 0.00 0.00 69 1014.1
20260506021622 12 269 0.0 0.0 0.00 0.00 0.00 71 1014.0
20260506020058 12 269 0.0 0.0 0.00 0.00 0.00 71 1014.2
20260506014557 12 269 0.0 0.0 0.00 0.00 0.00 68 1014.3
20260506013107 12 269 0.0 0.0 0.00 0.00 0.00 67 1014.4
20260506011614 13 269 0.0 0.0 0.00 0.00 0.00 68 1014.4
20260506010057 13 269 0.0 0.0 0.00 0.00 0.00 62 1014.4
20260506004553 13 287 0.0 0.0 0.00 0.00 0.00 67 1014.6
20260506003053 13 279 0.0 1.6 0.00 0.00 0.00 58 1014.4
20260506001554 13 303 0.0 6.4 0.00 0.00 0.00 59 1014.5
20260506000050 13 269 0.0 0.0 0.00 0.00 0.00 64 1014.6
20260505234550 13 275 0.0 0.0 0.00 0.00 0.00 61 1014.6
20260505233046 13 274 0.0 0.0 0.00 0.00 0.00 59 1014.8
20260505231600 13 300 0.0 0.0 0.00 0.00 0.00 68 1014.9
20260505230041 13 300 0.0 0.0 0.00 0.00 0.00 69 1014.9
20260505224540 13 300 0.0 0.0 0.00 0.00 0.00 65 1014.9
20260505223040 13 302 0.0 0.0 0.00 0.00 0.00 65 1015.0
20260505221537 13 302 0.0 0.0 0.00 0.00 0.00 69 1015.0
20260505220036 13 302 0.0 0.0 0.00 0.00 0.00 66 1015.0